Weather observations for the past three days for
Redwood Falls Municipal Airport
Imperial (Metric)
Date Time (cdt) Wind (mph) Vis. (mi.) Weather Sky Cond. Temperature (ºF) Relative Humidity Wind Chill (°F) Heat Index (°F) Pressure Precipitation (in)
Air Dwpt 6 hour altimeter (in) sea level (mb) 1 hr 3 hr 6 hr
Max. Min.
20 14:53 Calm 10.00 A Few Clouds FEW038 FEW047 79 64.9 62% 81 30.1 1018.9
20 13:53 Calm 10.00 Overcast OVC032 78.1 63 60% 80 30.11 1019.1
20 12:53 Calm 10.00 Overcast OVC030 78.1 64 79 64 62% 80 30.11 1019.1
20 11:53 SE 5 10.00 A Few Clouds FEW025 FEW055 75.9 64 67% 78 30.11 1019.2
20 10:53 Vrbl 5 9.00 Mostly Cloudy BKN019 73.9 64.9 74% 30.11 1019.1
20 09:53 SE 5 7.00 Partly Cloudy SCT016 72 64.9 79% 30.11 1019.1
20 08:53 Calm 7.00 Fair CLR 70 64 82% 30.11 1019.1
20 07:53 SW 3 6.00 Fog/Mist OVC021 66.9 64 91% 30.1 1019.0
20 06:53 SE 5 5.00 Fog/Mist CLR 64 63 66.9 64 96% 30.1 1018.7
20 05:53 Calm 5.00 Fog/Mist OVC065 64.9 63 93% 30.08 1018.2
20 04:53 S 3 7.00 Mostly Cloudy BKN060 64.9 63 93% 30.07 1017.8
20 03:53 S 5 7.00 Overcast OVC060 64.9 63 93% 30.06 1017.5
20 02:53 S 6 9.00 Overcast OVC055 66.9 63 87% 30.06 1017.4
20 01:53 S 3 8.00 Overcast OVC048 66 64 93% 30.06 1017.4
20 00:53 SE 5 8.00 Fair CLR 64.9 63 75.9 64.9 93% 30.06 1017.3
19 23:53 SE 3 9.00 Overcast OVC050 69.1 64 84% 30.06 1017.5
19 22:53 SE 7 10.00 Overcast OVC048 70 64 82% 30.07 1017.7
19 21:53 S 8 10.00 Overcast OVC046 71.1 63 76% 30.06 1017.5
19 20:53 S 5 10.00 Overcast BKN042 OVC050 72 62.1 71% 30.04 1016.7
19 19:53 S 8 9.00 Overcast OVC047 73 62.1 69% 30.04 1016.9
19 18:53 SW 14 G 21 10.00 Mostly Cloudy FEW043 BKN070 75.9 61 78.1 75.9 60% 78 30.04 1017.1
19 17:53 S 14 G 22 10.00 A Few Clouds FEW110 78.1 61 56% 80 30.04 1017.1
19 16:53 S 8 10.00 Overcast BKN050 OVC065 75.9 63 64% 78 30.05 1017.4
19 15:53 S 10 10.00 Partly Cloudy SCT065 75.9 62.1 62% 78 30.04 1017.1
19 14:53 S 12 10.00 Overcast OVC060 77 61 58% 79 30.05 1017.2
19 13:53 S 16 G 24 10.00 Mostly Cloudy BKN065 BKN080 BKN090 78.1 61 56% 80 30.06 1017.5
19 12:53 SE 15 10.00 Mostly Cloudy BKN065 BKN080 78.1 61 78.1 59 56% 80 30.07 1018.0
19 11:53 S 15 10.00 Fair CLR 75.9 60.1 58% 78 30.08 1018.3
19 10:53 S 14 10.00 Overcast OVC050 73 60.1 64% 30.09 1018.7
19 09:53 S 13 10.00 Mostly Cloudy BKN055 72 59 64% 30.1 1018.8
19 08:53 SE 8 10.00 Overcast BKN060 OVC070 68 59 73% 30.11 1019.3
19 07:53 SE 10 10.00 Mostly Cloudy SCT050 BKN070 64.9 57.9 78% 30.12 1019.5
19 06:53 SE 6 10.00 A Few Clouds FEW070 59 57 62.1 57.9 93% 30.11 1019.5
19 05:53 SE 7 10.00 Fair CLR 57.9 55.9 93% 30.11 1019.5
19 04:53 S 6 10.00 A Few Clouds FEW060 60.1 55.9 86% 30.12 1019.7
19 03:53 S 6 10.00 A Few Clouds FEW060 60.1 55.9 86% 30.12 1019.6
19 02:53 SE 5 10.00 A Few Clouds FEW055 60.1 55.9 86% 30.12 1019.6
19 01:53 S 5 10.00 Fair CLR 60.1 55.9 86% 30.12 1019.7
19 00:53 SE 6 10.00 Fair CLR 62.1 55.9 77 61 80% 30.13 1020.0
18 23:53 SE 6 10.00 Fair CLR 62.1 57 84% 30.13 1019.9
18 22:53 SE 7 10.00 Fair CLR 64 57 78% 30.13 1020.0
18 21:53 SE 6 10.00 Fair CLR 66.9 57.9 73% 30.13 1020.1
18 20:53 SE 6 10.00 Fair CLR 70 57 64% 30.13 1019.9
18 19:53 S 5 10.00 Fair CLR 75 55 50% 78 30.13 1020.0
18 18:53 SE 7 10.00 Fair CLR 77 54 78.1 73.9 45% 78 30.14 1020.5
18 17:53 S 6 10.00 Partly Cloudy SCT060 78.1 53.1 42% 79 30.16 1021.0
18 16:53 SE 6 10.00 Fair CLR 77 54 45% 78 30.17 1021.5
18 15:53 S 9 10.00 Partly Cloudy SCT055 77 53.1 43% 78 30.18 1021.9
18 14:53 SE 9 10.00 Mostly Cloudy BKN055 75 55 50% 78 30.2 1022.4
18 13:53 Calm 10.00 Partly Cloudy SCT055 75 52 45% 78 30.21 1022.8
18 12:53 SE 3 10.00 A Few Clouds FEW050 73.9 52 75 57.9 46% 30.22 1023.1
18 11:53 S 6 10.00 A Few Clouds FEW048 73 52 48% 30.23 1023.3
18 10:53 S 6 10.00 Fair CLR 72 54 53% 30.24 1023.7
18 09:53 S 5 10.00 Fair CLR 70 55.9 61% 30.24 1023.6
18 08:53 Calm 10.00 Fair CLR 66 57.9 75% 30.24 1023.8
18 07:53 Calm 10.00 Fair CLR 63 57 81% 30.24 1023.8
18 05:53 Calm 10.00 Fair CLR 55.9 54 93% 30.23 1023.4
18 04:53 Calm 10.00 Fair CLR 55.9 54 93% 30.23 1023.5
18 03:53 Calm 10.00 Fair CLR 57 54 90% 30.22 1023.1
18 02:53 Calm 10.00 Fair CLR 59 55 87% 30.22 1023.0
18 01:53 Calm 10.00 Fair CLR 59 55 87% 30.22 1023.1
18 00:53 Calm 10.00 Fair CLR 60.1 55 73.9 60.1 84% 30.21 1022.8
17 23:53 Calm 10.00 Fair CLR 62.1 54 75% 30.19 1022.2
17 22:53 Calm 10.00 Fair CLR 64 54 70% 30.19 1022.1
17 21:53 Calm 10.00 Fair CLR 64.9 54 68% 30.19 1022.1
17 20:53 Calm 10.00 Fair CLR 69.1 53.1 57% 30.17 1021.4
17 19:53 N 3 10.00 Fair CLR 72 52 50% 30.16 1021.2
17 18:53 N 6 10.00 Mostly Cloudy BKN055 73.9 52 75 70 46% 30.17 1021.3
17 17:53 N 7 10.00 Partly Cloudy SCT055 75 52 45% 78 30.17 1021.3
17 16:53 NW 7 10.00 Fair CLR 73.9 52 46% 30.17 1021.4
17 15:53 N 6 10.00 Partly Cloudy SCT050 73.9 51.1 45% 30.18 1021.8
Date Time (cdt) Wind (mph) Vis. (mi.) Weather Sky Cond. Air Dwpt Max. Min. Relative Humidity Wind Chill (°F) Heat Index (°F) altimeter (in) sea level (mb) 1 hr 3 hr 6 hr
6 hour
Temperature (ºF) Pressure Precipitation (in)